Location: Newark
(51.0000°N, 11.4100°E)
Time: 14:12:15
(UTC+00:00)

N. Korean satellite - Pass Details

Date: 24 October 2019
Orbit: 456 x 506 km, 97.2° (Epoch: 17 November)

Event Time Altitude Azimuth Distance (km) Brightness Sun altitude
Rises 04:37:35 0° 21° (NNE) 2,570 10.5 -12.3°
Reaches altitude 10° 04:39:51 10° 33° (NNE) 1,692 9.7 -12.0°
Maximum altitude 04:43:05 30° 96° (E) 923 8.9 -11.5°
Drops below altitude 10° 04:46:20 10° 158° (SSE) 1,700 9.7 -11.0°
Sets 04:48:36 0° 170° (S) 2,585 10.5 -10.6°
